TimeCST,TemperatureF,Dew PointF,Humidity,Sea Level PressureIn,VisibilityMPH,Wind Direction,Wind SpeedMPH,Gust SpeedMPH,PrecipitationIn,Events,Conditions,WindDirDegrees,DateUTC
6:00 AM,69,65,85,29.88,12,Calm,Calm,,,,Overcast,,2012-11-14 12:00:00
6:00 AM,69.8,66.2,88,29.86,-9999.0,Calm,Calm,-,N/A,,Clear,0,2012-11-14 12:00:00
7:00 AM,77.0,68.0,74,29.90,-9999.0,SSE,3.5,-,N/A,,Clear,150,2012-11-14 13:00:00
8:00 AM,78.8,66.2,65,29.92,-9999.0,SSW,4.6,-,N/A,,Clear,200,2012-11-14 14:00:00
9:00 AM,82,67,50,29.94,12,WSW,5.8,,,,Overcast,250,2012-11-14 15:00:00
9:00 AM,82.4,66.2,58,29.92,-9999.0,WSW,5.8,-,N/A,,Clear,250,2012-11-14 15:00:00
10:00 AM,86.0,66.2,51,29.90,-9999.0,West,5.8,-,N/A,,Clear,280,2012-11-14 16:00:00
11:00 AM,87.8,64.4,46,29.89,-9999.0,SW,4.6,-,N/A,,Clear,220,2012-11-14 17:00:00
12:00 PM,88,66,38,29.87,12,East,9.2,,,,Overcast,100,2012-11-14 18:00:00
12:00 PM,87.8,66.2,49,29.86,-9999.0,East,9.2,-,N/A,,Clear,100,2012-11-14 18:00:00
1:00 PM,89.6,64.4,43,29.84,-9999.0,West,5.8,-,N/A,,Clear,280,2012-11-14 19:00:00
2:00 PM,89.6,66.2,46,29.82,-9999.0,West,8.1,-,N/A,,Clear,280,2012-11-14 20:00:00
3:00 PM,87,66,40,29.83,12,East,9.2,,,,Clear,90,2012-11-14 21:00:00
3:00 PM,87.8,66.2,49,29.81,-9999.0,East,9.2,-,N/A,,Clear,90,2012-11-14 21:00:00
4:00 PM,86.0,68.0,55,29.82,6.2,WSW,4.6,-,N/A,,Mostly Cloudy,250,2012-11-14 22:00:00
5:00 PM,82.4,66.2,58,29.84,6.2,SE,4.6,-,N/A,,Mostly Cloudy,140,2012-11-14 23:00:00
6:00 PM,78,68,65,29.87,12,WSW,5.8,,,,Overcast,240,2012-11-15 00:00:00
6:00 PM,77.0,68.0,74,29.86,6.2,WSW,5.8,-,N/A,,Mostly Cloudy,240,2012-11-15 00:00:00
7:00 PM,77.0,68.0,74,29.88,6.2,South,5.8,-,N/A,,Mostly Cloudy,190,2012-11-15 01:00:00
8:00 PM,75.2,68.0,78,29.90,6.2,SSW,3.5,-,N/A,,Mostly Cloudy,200,2012-11-15 02:00:00